This is the latest recevied weather packets stored in our database for station/object IZ5MMH-14. If no packets are shown the sender has not sent any weather packets the latest 10 day(s).
| Time | Temp. | Humidity | Pressure | Rain* | Wind** | Luminosity | Snow |
|---|---|---|---|---|---|---|---|
| 1777508398 | 16.67° C | 76% | 1016.5 hPa | - | - | - | - |
| 1777507798 | 16.67° C | 75% | 1016.5 hPa | - | - | - | - |
| 1777507198 | 16.67° C | 78% | 1016.4 hPa | - | - | - | - |
| 1777506598 | 16.67° C | 77% | 1016.5 hPa | - | - | - | - |
| 1777505998 | 17.22° C | 76% | 1016.4 hPa | - | - | - | - |
| 1777505398 | 17.22° C | 77% | 1016.4 hPa | - | - | - | - |
| 1777504798 | 17.22° C | 77% | 1016.6 hPa | - | - | - | - |
| 1777504198 | 17.22° C | 78% | 1016.6 hPa | - | - | - | - |
| 1777503598 | 17.22° C | 78% | 1016.6 hPa | - | - | - | - |
| 1777502998 | 17.78° C | 77% | 1016.5 hPa | - | - | - | - |
| 1777502398 | 17.78° C | 77% | 1016.4 hPa | - | - | - | - |
| 1777501798 | 17.78° C | 79% | 1016.3 hPa | - | - | - | - |
| 1777501198 | 17.78° C | 83% | 1016.2 hPa | - | - | - | - |
| 1777499998 | 18.33° C | 84% | 1016 hPa | - | - | - | - |
| 1777499398 | 18.33° C | 86% | 1015.7 hPa | - | - | - | - |
| 1777498798 | 18.33° C | 88% | 1015.8 hPa | - | - | - | - |
| 1777498198 | 18.33° C | 93% | 1015.9 hPa | - | - | - | - |
| 1777497599 | 18.89° C | 97% | 1016 hPa | - | - | - | - |
| 1777496998 | 18.89° C | 95% | 1015.9 hPa | - | - | - | - |
| 1777496398 | 18.89° C | 92% | 1015.9 hPa | - | - | - | - |
| 1777495798 | 19.44° C | 90% | 1015.6 hPa | - | - | - | - |
| 1777495198 | 19.44° C | 87% | 1015.6 hPa | - | - | - | - |
| 1777494598 | 20° C | 86% | 1015.5 hPa | - | - | - | - |
| 1777493998 | 20° C | 84% | 1015.5 hPa | - | - | - | - |
| 1777493398 | 20° C | 83% | 1015.4 hPa | - | - | - | - |
* Rain since midnight (hover to see other rain measurements)
** Current wind speed in m/s (hover to see current wind gust speed)